[Iaude] MPEC V44: 2016 VA1 [a=1.18,e=0.42,i=29.2,H=23.6]

mpec at si.edu mpec at si.edu
Sun Nov 6 17:12:01 EST 2016


M.P.E.C. 2016-V44                                Issued 2016 Nov. 6, 22:07 UT
 
     The Minor Planet Electronic Circulars contain information on unusual
         minor planets and routine data on comets.  They are published
    on behalf of Division F of the International Astronomical Union by the
          Minor Planet Center, Smithsonian Astrophysical Observatory,
                          Cambridge, MA 02138, U.S.A.

             Prepared using the Tamkin Foundation Computer Network

                              MPC at CFA.HARVARD.EDU
            URL http://www.minorplanetcenter.net/    ISSN 1523-6714


                                   2016 VA1
 
Observations:
     K16V01A* C2016 11 05.33715 03 29 51.16 -12 43 16.3          19.2 VqEV044G96
     K16V01A  C2016 11 05.34270 03 29 46.69 -12 42 35.8          19.1 VqEV044G96
     K16V01A  C2016 11 05.34914 03 29 41.46 -12 41 48.6                qEV044G96
     K16V01A  C2016 11 05.38425 03 29 12.90 -12 37 29.9          19.2 VqEV044G96
     K16V01A  C2016 11 05.38466 03 29 12.56 -12 37 26.8          19.1 VqEV044G96
     K16V01A  C2016 11 05.38507 03 29 12.25 -12 37 24.0          19.0 VqEV044G96
     K16V01A  C2016 11 05.38548 03 29 11.89 -12 37 20.6          19.0 VqEV044G96
     K16V01A  C2016 11 05.41749 03 28 45.71 -12 33 21.2          19.1 VqEV044I52
     K16V01A  C2016 11 05.41933 03 28 44.21 -12 33 07.2          18.9 VqEV044I52
     K16V01A  C2016 11 05.41974 03 28 43.87 -12 33 04.0          19.2 VqEV044I52
     K16V01A  C2016 11 05.42034 03 28 43.40 -12 32 59.5          19.0 VqEV044I52
     K16V01A KC2016 11 05.51040 03 27 40.22 -12 19 20.2          19.1 VqEV044E23
     K16V01A KC2016 11 05.54188 03 27 13.62 -12 15 18.5          19.0 VqEV044E23
     K16V01A  C2016 11 05.70535 03 24 53.36 -11 55 56.5          19.1 RoEV044300
     K16V01A  C2016 11 05.70766 03 24 51.29 -11 55 36.8          19.1 RoEV044300
     K16V01A  C2016 11 05.70996 03 24 49.26 -11 55 18.2          19.0 RoEV044300
     K16V01A  C2016 11 05.71227 03 24 47.18 -11 55 00.0          19.0 RoEV044300
     K16V01A KC2016 11 06.05590 03 19 42.91 -11 05 35.6                qEV044J95
     K16V01A KC2016 11 06.06016 03 19 38.75 -11 04 57.3                qEV044J95
     K16V01A KC2016 11 06.06435 03 19 34.66 -11 04 17.6          18.7 RqEV044J95
     K16V01A  C2016 11 06.23319 03 16 58.18 -10 37 01.8          18.8 VqEV044G96
     K16V01A  C2016 11 06.23595 03 16 55.33 -10 36 35.0          18.8 VqEV044G96
     K16V01A  C2016 11 06.23893 03 16 52.24 -10 36 06.0          18.8 VqEV044G96
     K16V01A KC2016 11 06.27702 03 16 10.36 -10 30 03.8          18.3 RqEV044H36
     K16V01A KC2016 11 06.27878 03 16 08.52 -10 29 46.1          18.9 RqEV044H36
     K16V01A KC2016 11 06.28160 03 16 05.55 -10 29 18.0          18.1 RqEV044H36
     K16V01A KC2016 11 06.28407 03 16 02.97 -10 28 53.8          18.4 RqEV044H36
     K16V01A KC2016 11 06.28654 03 16 00.37 -10 28 29.4          18.7 RqEV044H36
     K16V01A  C2016 11 06.31310 03 15 34.34 -10 23 49.8          18.0 RoEV044926
     K16V01A  C2016 11 06.31466 03 15 32.67 -10 23 34.1          18.0 RoEV044926
     K16V01A  C2016 11 06.31624 03 15 31.01 -10 23 18.4          17.9 RoEV044926
     K16V01A |C2016 11 06.43083 03 13 40.32 -10 00 58.6          18.4 RuEV044Q62
     K16V01A |C2016 11 06.43824 03 13 32.32 -09 59 41.2          18.4 RuEV044Q62
     K16V01A  C2016 11 06.54971 03 11 30.00 -09 42 30.8          18.2 VqEV044900
     K16V01A  C2016 11 06.55727 03 11 21.33 -09 41 09.0          19.3 VqEV044900
     K16V01A  C2016 11 06.58127 03 10 53.84 -09 36 45.3          18.4 VqEV044900
     K16V01A  C2016 11 06.59638 03 10 36.45 -09 33 57.6          18.8 VqEV044900
 
Observer details:
300 Bisei Spaceguard Center--BATTeRS.  Observers S. Okumura, T. Nimura.  1.0-m
    f/3.0 reflector + CCD.
900 Moriyama.  Observer Y. Ikari.  0.26-m f/7.0 reflector + CCD.
926 Tenagra II Observatory.  Observers M. Schwartz, P. R. Holvorcem.  Measurer
    M. Schwartz.  0.81-m f/7 Ritchey-Chretien + CCD.
E23 Arcadia.  Observer A. Hidas.  0.35-m f/1.9 reflector + CCD.
G96 Mt. Lemmon Survey.  Observers A. R. Gibbs, R. A. Kowalski.  Measurers
    E. J. Christensen, D. C. Fuls, A. R. Gibbs, A. D. Grauer, J. A. Johnson,
    R. A. Kowalski, S. M. Larson, G. J. Leonard, R. G. Matheny, R. L. Seaman,
    F. C. Shelly.  1.5-m reflector + 10K CCD.
H36 Sandlot Observatory, Scranton.  Observer G. Hug.  0.56-m reflector + CCD.
I52 Steward Observatory, Mt. Lemmon Station.  Observer R. G. Matheny.
    Measurers E. J. Christensen, D. C. Fuls, A. R. Gibbs, A. D. Grauer,
    J. A. Johnson, R. A. Kowalski, S. M. Larson, G. J. Leonard, R. G. Matheny,
    R. L. Seaman, F. C. Shelly.  1.0-m reflector + CCD.
J95 Great Shefford.  Observer P. Birtwhistle.  0.40-m f/6.0 Schmidt-Cassegrain
    + CCD.
Q62 iTelescope Observatory, Siding Spring.  Observers L. Buzzi, P. Concari,
    S. Foglia, G. Galli, M. Tombelli.  0.15-m f/7 refractor + CCD.
 
Orbital elements:
2016 VA1                                                 Earth MOID = 0.0213 AU
Epoch 2016 July 31.0 TT = JDT 2457600.5                 MPC
M 233.37274              (2000.0)            P               Q
n   0.76908346     Peri.   96.67839     -0.71113740     -0.60635503
a   1.1798326      Node    46.76886     +0.27397014     -0.70512039
e   0.4217088      Incl.   29.23426     +0.64747507     -0.36761231
P   1.28           H   23.6           G   0.15           U   7
Residuals in seconds of arc
161105 G96  0.0   0.0     161105 300  0.0   0.3-    161106 H36  0.2+  0.1-
161105 G96  0.2+  0.1+    161105 300  0.2-  0.3+    161106 H36  0.2+  0.3-
161105 G96  0.0   0.2+    161105 300  0.0   0.1-    161106 926  0.3-  0.2+
161105 G96  0.0   0.0     161105 300  0.3-  0.9-    161106 926  0.4-  0.2+
161105 G96  0.1-  0.1+    161106 J95  0.1+  0.4+    161106 926  0.1-  0.0
161105 G96  0.3+  0.2-    161106 J95  0.1-  0.7-    161106 Q62  0.5+  0.7-
161105 G96  0.1-  0.2+    161106 J95  0.2-  0.2+    161106 Q62  0.4+  0.5-
161105 I52  0.1-  0.1-    161106 G96  0.1+  0.2+    161106 900  0.8+  0.2+
161105 I52  0.0   0.0     161106 G96  0.1+  0.1+    161106 900  0.3-  0.4-
161105 I52  0.1-  0.1+    161106 G96  0.1-  0.1+    161106 900  0.7-  0.1+
161105 I52  0.2+  0.1+    161106 H36  0.0   0.1+    161106 900  0.1-  0.6+
161105 E23  0.3+  0.2+    161106 H36  0.1+  0.3+
161105 E23  0.0   0.0     161106 H36  0.0   0.3+

Ephemeris:
2016 VA1                 a,e,i = 1.18, 0.42, 29                  q = 0.6823
Date    TT    R. A. (2000) Decl.     Delta      r     Elong.  Phase     V
2016 10 07    04 27 46.8 -20 19 30   0.3977  1.2512   120.9    43.3    23.8
...
2016 10 22    04 26 16.5 -20 26 06   0.2263  1.1531   129.8    41.6    22.3
...
2016 10 30    04 11 46.0 -18 47 24   0.1373  1.0975   137.0    38.1    21.0
...
2016 11 05    03 33 57.5 -13 20 42   0.07332 1.0545   148.2    29.7    19.3
2016 11 06    03 20 37.0 -11 12 10   0.06329 1.0473   151.5    26.9    18.9
2016 11 07    03 02 40.2 -08 11 41   0.05368 1.0400   155.3    23.5    18.4
...
2016 11 13    21 10 32.8 +35 02 00   0.03553 0.9961    99.6    78.4    19.1
...
2016 11 21    18 00 46.2 +30 51 28   0.1118  0.9372    60.1   113.9    23.1
...
2016 12 06    17 18 25.1 +25 33 03   0.2723  0.8303    48.5   117.3    25.0

A. U. Tomatic                (C) Copyright 2016 MPC           M.P.E.C. 2016-V44




More information about the Iaude mailing list